STARLINK-1888 (47171 NORAD) Tracking and Keplerian Element Data

This shows tracking and keplerian element data for the satellite.

Feedback or suggestion? Click here.




ElementValue
Catalog47171
NameSTARLINK-1888
Epoch Orbit895
Epoch Day16.16667824
Epoch Year2021
RAAN97.3666
Inclination53.0551
Eccentricity0.0001275
Argument of Perigee41.5149
Mean Anonmoly310.5239
Mean Motion15.62729326
Decay Rate0.00061257
L11 47171U 20088BB 21016.16667824 .00061257 00000-0 67043-3 0 9992
L22 47171 53.0551 97.3666 0001275 41.5149 310.5239 15.62729326 8955

Live tracking and technical data element details for STARLINK-1888 (NORAD 47171). STARLINK-1888 can be tracked NOW for your location showing map with azimuth and elevation plus other details from your city location.

Track the satellite on the map from your city or location and see movement details for azimuth, elevation, latitude, longitude, range, height, and movement on the map or in text.







IsCatalogInMostPopularTable: catalog: 47171, numindb: 19
Update: records affected: 1



GetName: 47171 STARLINK-1888

Hit Count: updated at: Sun, 17 Jan 2021 08:36:57 GMT